This is the latest recevied weather packets stored in our database for station/object OE5WWO. If no packets are shown the sender has not sent any weather packets the latest 10 day(s).
| Time | Temp. | Humidity | Pressure | Rain* | Wind** | Luminosity | Snow |
|---|---|---|---|---|---|---|---|
| 1777336259 | 11.67° C | 46% | 1018.7 hPa | 0 mm | - | - | - |
| 1777333841 | 11.67° C | 46% | 1018.9 hPa | 0 mm | - | - | - |
| 1777333555 | 11.67° C | 47% | 1018.8 hPa | 0 mm | - | - | - |
| 1777333240 | 11.67° C | 47% | 1018.7 hPa | 0 mm | - | - | - |
| 1777331751 | 11.11° C | 49% | 1018.7 hPa | 0 mm | - | - | - |
| 1777329337 | 11.67° C | 48% | 1018.8 hPa | 0 mm | - | - | - |
| 1777326940 | 12.22° C | 46% | 1018.7 hPa | 0 mm | - | - | - |
| 1777326638 | 12.22° C | 46% | 1018.7 hPa | 0 mm | - | - | - |
| 1777326354 | 12.22° C | 46% | 1018.7 hPa | 0 mm | - | - | - |
| 1777325453 | 12.22° C | 47% | 1018.8 hPa | 0 mm | - | - | - |
| 1777325137 | 12.22° C | 47% | 1018.8 hPa | 0 mm | - | - | - |
| 1777324838 | 12.22° C | 47% | 1018.7 hPa | 0 mm | - | - | - |
| 1777324572 | 12.22° C | 48% | 1018.8 hPa | 0 mm | - | - | - |
| 1777324239 | 12.22° C | 50% | 1018.9 hPa | 0 mm | - | - | - |
| 1777322754 | 12.22° C | 51% | 1019 hPa | 0 mm | - | - | - |
| 1777321537 | 12.78° C | 50% | 1018.9 hPa | 0 mm | - | - | - |
| 1777320337 | 13.33° C | 47% | 1019.1 hPa | 0 mm | - | - | - |
| 1777320054 | 13.89° C | 47% | 1019.1 hPa | 0 mm | - | - | - |
| 1777312855 | 17.22° C | 38% | 1018.1 hPa | 0 mm | - | - | - |
| 1777312238 | 17.22° C | 36% | 1018.1 hPa | 0 mm | - | - | - |
| 1777311337 | 17.78° C | 35% | 1018.1 hPa | 0 mm | - | - | - |
| 1777309837 | 18.89° C | 30% | 1018.1 hPa | 0 mm | - | - | - |
| 1777309249 | 18.89° C | 30% | 1018.1 hPa | 0 mm | - | - | - |
| 1777308344 | 19.44° C | 29% | 1018.1 hPa | 0 mm | - | - | - |
| 1777306551 | 19.44° C | 27% | 1018.1 hPa | 0 mm | - | - | - |
* Rain latest hour (hover to see other rain measurements)
** Current wind speed in m/s (hover to see current wind gust speed)